KT2UU-13 Weather Reports


time (UTC)temp
C
wind
direction
speed
KPH
gust
KPH
rain 1hr
cm
rain 24hr
cm
rain mn
cm
humidity
%
barometer
mb
20260506190908 24 69 0.0 0.0 0.00 0.03 0.03 81 1013.9
20260506190404 24 91 0.0 0.0 0.00 0.03 0.03 81 1014.3
20260506185901 23 115 0.0 0.0 0.00 0.03 0.03 81 1014.1
20260506185358 23 115 1.6 3.2 0.00 0.03 0.03 83 1014.3
20260506184850 23 114 0.0 1.6 0.00 0.03 0.03 83 1014.6
20260506184346 23 156 3.2 3.2 0.00 0.03 0.03 83 1014.5
20260506183844 23 157 0.0 0.0 0.00 0.03 0.03 83 1014.2
20260506183338 23 157 0.0 1.6 0.00 0.03 0.03 84 1014.7
20260506182831 23 108 0.0 0.0 0.00 0.03 0.03 83 1014.8
20260506182328 23 108 0.0 0.0 0.00 0.03 0.03 84 1014.9
20260506181825 23 127 0.0 1.6 0.00 0.03 0.03 84 1015.0
20260506181323 23 108 0.0 1.6 0.00 0.03 0.03 84 1015.2
20260506180820 23 157 0.0 0.0 0.00 0.03 0.03 85 1015.5
20260506180316 23 161 0.0 0.0 0.00 0.03 0.03 84 1015.5
20260506175812 23 204 3.2 3.2 0.00 0.03 0.03 84 1015.5
20260506175309 23 212 3.2 4.8 0.00 0.03 0.03 83 1015.4
20260506174807 23 108 1.6 3.2 0.00 0.03 0.03 82 1015.4
20260506174304 23 94 0.0 0.0 0.00 0.03 0.03 82 1015.3
20260506173801 23 187 0.0 4.8 0.00 0.03 0.03 83 1015.3
20260506173258 23 150 0.0 3.2 0.00 0.03 0.03 84 1015.5
20260506172755 23 103 3.2 4.8 0.00 0.03 0.03 85 1015.3
20260506172251 22 113 0.0 4.8 0.00 0.03 0.03 86 1015.3
20260506171749 22 357 1.6 1.6 0.00 0.03 0.03 87 1015.1
20260506171246 22 358 1.6 3.2 0.00 0.03 0.03 87 1015.2
20260506170744 22 213 0.0 0.0 0.00 0.03 0.03 89 1015.1
20260506170240 21 213 0.0 1.6 0.00 0.03 0.03 89 1014.9
20260506165738 21 200 0.0 0.0 0.00 0.03 0.03 90 1015.0
20260506165235 21 134 0.0 0.0 0.00 0.03 0.03 92 1015.0
20260506164732 21 195 0.0 0.0 0.00 0.03 0.03 92 1015.0
20260506164229 21 195 0.0 0.0 0.00 0.03 0.03 93 1015.3
20260506163726 21 187 0.0 0.0 0.00 0.03 0.03 93 1015.4
20260506163220 20 195 0.0 1.6 0.00 0.03 0.03 93 1015.2
20260506162717 20 195 0.0 0.0 0.00 0.03 0.03 94 1015.4
20260506162214 20 195 0.0 1.6 0.00 0.03 0.03 94 1015.5
20260506161712 20 195 0.0 0.0 0.00 0.03 0.03 93 1015.5
20260506161209 20 220 0.0 3.2 0.00 0.03 0.03 93 1015.8
20260506160706 20 181 4.8 4.8 0.00 0.03 0.03 93 1016.0
20260506160202 20 209 0.0 3.2 0.00 0.03 0.03 92 1015.9
20260506155701 20 185 0.0 0.0 0.00 0.03 0.03 92 1015.8
20260506155158 19 6 0.0 1.6 0.00 0.03 0.03 96 1015.0
20260506153306 19 6 0.0 0.0 0.00 0.03 0.03 97 1015.1
20260506152803 18 6 0.0 0.0 0.00 0.03 0.03 97 1014.9
20260506152300 18 6 0.0 1.6 0.00 0.03 0.03 97 1015.6
20260506151759 18 6 0.0 0.0 0.00 0.03 0.03 97 1015.5
20260506151255 18 46 1.6 1.6 0.00 0.03 0.03 97 1015.4
20260506150751 18 147 0.0 0.0 0.00 0.03 0.03 97 1017.0
20260506150249 18 159 0.0 1.6 0.00 0.03 0.03 96 1016.8
20260506145746 18 153 0.0 0.0 0.00 0.03 0.03 96 1017.1
20260506145242 18 153 1.6 1.6 0.00 0.03 0.03 96 1016.6
20260506144740 18 153 0.0 1.6 0.18 0.03 0.03 95 1016.3
20260506144237 18 220 0.0 1.6 0.18 0.03 0.03 94 1016.5
20260506143734 19 158 1.6 4.8 0.00 0.00 0.00 93 1016.6
20260506143231 19 58 0.0 0.0 0.00 0.00 0.00 92 1015.8
20260506142730 19 58 0.0 0.0 0.00 0.00 0.00 92 1015.8
20260506142228 19 106 1.6 1.6 0.00 0.00 0.00 91 1015.0
20260506141725 19 87 0.0 0.0 0.00 0.00 0.00 90 1016.0
20260506141224 19 129 0.0 0.0 0.00 0.00 0.00 88 1016.3
20260506140721 19 129 0.0 0.0 0.00 0.00 0.00 88 1015.9
20260506140218 19 130 1.6 3.2 0.00 0.00 0.00 87 1016.0
20260506135714 19 109 0.0 0.0 0.00 0.00 0.00 87 1016.0
20260506135211 19 122 3.2 4.8 0.00 0.00 0.00 86 1015.8
20260506134708 19 123 3.2 4.8 0.00 0.00 0.00 86 1015.6
20260506134204 20 131 0.0 3.2 0.00 0.00 0.00 85 1015.6
20260506133701 20 141 3.2 4.8 0.00 0.00 0.00 85 1015.6
20260506133157 20 125 0.0 0.0 0.00 0.00 0.00 85 1015.2
20260506132655 20 122 1.6 3.2 0.00 0.00 0.00 84 1015.5
20260506132151 20 122 1.6 3.2 0.00 0.00 0.00 84 1014.9
20260506131649 19 126 0.0 3.2 0.00 0.00 0.00 84 1015.0
20260506131145 19 118 0.0 1.6 0.00 0.00 0.00 84 1015.3
20260506130642 19 110 1.6 1.6 0.00 0.00 0.00 84 1015.4
20260506130140 19 140 1.6 3.2 0.00 0.00 0.00 84 1015.4
20260506125638 19 139 0.0 1.6 0.00 0.00 0.00 84 1015.2
20260506125135 19 141 0.0 1.6 0.00 0.00 0.00 84 1015.1
20260506124633 19 141 0.0 0.0 0.00 0.00 0.00 84 1014.9
20260506124131 19 137 0.0 1.6 0.00 0.00 0.00 84 1014.8
20260506123628 19 152 1.6 3.2 0.00 0.00 0.00 83 1014.9
20260506123127 19 143 0.0 0.0 0.00 0.00 0.00 84 1014.6
20260506122623 19 153 0.0 1.6 0.00 0.00 0.00 84 1014.7
20260506122121 19 138 0.0 0.0 0.00 0.00 0.00 83 1014.6
20260506121618 19 138 0.0 0.0 0.00 0.00 0.00 83 1014.6
20260506121114 19 138 0.0 0.0 0.00 0.00 0.00 83 1014.6
20260506120613 19 138 0.0 0.0 0.00 0.00 0.00 83 1014.7
20260506120110 19 137 0.0 0.0 0.00 0.00 0.00 83 1014.7
20260506115608 19 137 0.0 0.0 0.00 0.00 0.00 83 1014.7
20260506115106 19 140 0.0 0.0 0.00 0.00 0.00 82 1014.5
20260506114603 19 140 0.0 0.0 0.00 0.00 0.00 82 1014.6
20260506114101 19 139 0.0 1.6 0.00 0.00 0.00 82 1014.5
20260506113558 19 138 0.0 0.0 0.00 0.00 0.00 82 1014.4
20260506113055 19 138 0.0 0.0 0.00 0.00 0.00 81 1014.6
20260506112552 19 138 0.0 0.0 0.00 0.00 0.00 82 1014.5
20260506112049 19 138 0.0 0.0 0.00 0.00 0.00 82 1014.4
20260506111547 19 138 0.0 0.0 0.00 0.00 0.00 81 1014.3
20260506111044 19 138 0.0 0.0 0.00 0.00 0.00 81 1014.1
20260506110542 19 138 0.0 0.0 0.00 0.00 0.00 81 1014.2
20260506110039 19 138 0.0 0.0 0.00 0.00 0.00 82 1014.2
20260506105535 19 138 0.0 0.0 0.00 0.00 0.00 82 1013.8
20260506105032 19 138 0.0 0.0 0.00 0.00 0.00 81 1013.7
20260506104530 19 138 0.0 0.0 0.00 0.00 0.00 81 1013.7
20260506104028 19 138 0.0 0.0 0.00 0.00 0.00 82 1013.7
20260506103525 19 137 0.0 0.0 0.00 0.00 0.00 82 1013.5
20260506103021 19 137 0.0 0.0 0.00 0.00 0.00 82 1013.6
20260506102520 19 138 0.0 0.0 0.00 0.00 0.00 81 1013.7
20260506102011 19 137 0.0 0.0 0.00 0.00 0.00 81 1013.5
20260506101508 19 137 0.0 0.0 0.00 0.00 0.00 80 1013.7
20260506101005 19 138 0.0 0.0 0.00 0.00 0.00 80 1013.7
20260506100503 19 137 0.0 0.0 0.00 0.00 0.00 80 1013.8
20260506100001 19 137 0.0 0.0 0.00 0.00 0.00 80 1013.6
20260506095500 19 147 0.0 0.0 0.00 0.00 0.00 80 1013.5
20260506094955 19 141 0.0 1.6 0.00 0.00 0.00 80 1013.6
20260506094454 19 140 0.0 0.0 0.00 0.00 0.00 80 1013.7
20260506093951 19 154 0.0 0.0 0.00 0.00 0.00 80 1013.4
20260506093449 19 140 0.0 1.6 0.00 0.00 0.00 80 1013.2
20260506092946 19 142 0.0 0.0 0.00 0.00 0.00 79 1013.4
20260506092444 19 140 1.6 1.6 0.00 0.00 0.00 79 1013.1
20260506091940 19 141 0.0 0.0 0.00 0.00 0.00 79 1013.2
20260506091439 19 141 0.0 1.6 0.00 0.00 0.00 79 1013.0
20260506090936 19 143 1.6 3.2 0.00 0.00 0.00 79 1013.1
20260506090434 19 152 0.0 1.6 0.00 0.00 0.00 79 1013.0
20260506085930 19 152 0.0 1.6 0.00 0.00 0.00 79 1013.1
20260506085427 19 152 0.0 1.6 0.00 0.00 0.00 79 1013.0
20260506084923 19 152 0.0 0.0 0.00 0.00 0.00 79 1013.0
20260506084420 18 147 0.0 0.0 0.00 0.00 0.00 80 1012.9
20260506083916 18 147 0.0 0.0 0.00 0.00 0.00 79 1012.9
20260506083414 18 147 0.0 0.0 0.00 0.00 0.00 79 1013.0
20260506082911 18 147 0.0 0.0 0.00 0.00 0.00 78 1013.0
20260506082408 18 147 0.0 0.0 0.00 0.00 0.00 78 1013.0
20260506081903 18 147 0.0 0.0 0.00 0.00 0.00 78 1013.2
20260506081402 18 147 0.0 0.0 0.00 0.00 0.00 78 1012.9
20260506080859 18 147 0.0 0.0 0.00 0.00 0.00 79 1013.2
20260506080355 18 147 0.0 0.0 0.00 0.00 0.00 78 1013.1
20260506073339 18 147 0.0 0.0 0.00 0.00 0.00 76 1013.1
20260506072836 18 147 0.0 0.0 0.00 0.00 0.00 76 1013.1
20260506072334 19 147 0.0 0.0 0.00 0.00 0.00 74 1013.3
20260506071831 19 147 0.0 0.0 0.00 0.00 0.00 74 1013.1
20260506071329 19 147 0.0 0.0 0.00 0.00 0.00 73 1013.4
20260506070820 19 146 0.0 1.6 0.00 0.00 0.00 72 1013.2
20260506070317 19 145 0.0 1.6 0.00 0.00 0.00 71 1013.1
20260506062254 20 112 0.0 1.6 0.00 0.00 0.00 66 1013.7
20260506061750 20 112 0.0 1.6 0.00 0.00 0.00 65 1013.7
20260506061247 20 115 0.0 1.6 0.00 0.00 0.00 64 1013.8
20260506060746 20 118 0.0 1.6 0.00 0.00 0.00 64 1013.8
20260506060243 21 118 0.0 1.6 0.00 0.00 0.00 62 1014.2
20260506051209 21 121 0.0 1.6 0.00 0.00 0.00 57 1014.1
20260506050707 21 98 0.0 0.0 0.00 0.00 0.00 57 1014.1
20260506050204 21 94 0.0 0.0 0.00 0.00 0.00 57 1014.0
20260506044655 21 99 1.6 3.2 0.00 0.00 0.00 55 1014.1
20260506044151 21 351 1.6 1.6 0.00 0.00 0.00 57 1014.2
20260506043649 21 83 0.0 1.6 0.00 0.00 0.00 56 1013.9
20260506043147 21 11 1.6 3.2 0.00 0.00 0.00 56 1013.8
20260506042646 21 24 1.6 1.6 0.00 0.00 0.00 56 1013.9
20260506042143 21 20 0.0 1.6 0.00 0.00 0.00 55 1014.1
20260506041642 21 257 0.0 0.0 0.00 0.00 0.00 55 1013.9
20260506041138 21 258 0.0 1.6 0.00 0.00 0.00 56 1014.2
20260506040636 21 258 0.0 3.2 0.00 0.00 0.00 55 1014.2
20260506040132 21 39 0.0 3.2 0.00 0.00 0.00 55 1014.2
20260506035629 21 30 0.0 0.0 0.00 0.00 0.00 55 1014.2
20260506035125 21 356 1.6 1.6 0.00 0.00 0.00 55 1014.4
20260506034623 21 24 0.0 1.6 0.00 0.00 0.00 55 1014.1
20260506034120 21 20 0.0 0.0 0.00 0.00 0.00 55 1014.0
20260506033617 21 20 0.0 1.6 0.00 0.00 0.00 56 1013.9
20260506033114 21 20 0.0 1.6 0.00 0.00 0.00 56 1013.8
20260506032606 21 20 0.0 3.2 0.00 0.00 0.00 55 1013.5
20260506032103 21 45 0.0 1.6 0.00 0.00 0.00 55 1013.7
20260506031600 21 89 0.0 0.0 0.00 0.00 0.00 56 1014.0
20260506031056 21 90 0.0 0.0 0.00 0.00 0.00 55 1014.2
20260506030555 21 124 0.0 1.6 0.00 0.00 0.00 54 1014.3
20260506030052 21 103 0.0 1.6 0.00 0.00 0.00 54 1014.4
20260506025549 21 43 0.0 1.6 0.00 0.00 0.00 54 1014.5
20260506025045 21 43 0.0 0.0 0.00 0.00 0.00 55 1014.4
20260506024542 21 54 0.0 0.0 0.00 0.00 0.00 55 1014.4
20260506024038 21 43 0.0 0.0 0.00 0.00 0.00 56 1014.4
20260506023534 21 43 0.0 0.0 0.00 0.00 0.00 56 1014.2
20260506023032 21 43 0.0 0.0 0.00 0.00 0.00 56 1014.3
20260506022529 21 43 0.0 0.0 0.00 0.00 0.00 56 1014.1
20260506022027 21 43 0.0 0.0 0.00 0.00 0.00 55 1014.2
20260506021524 21 54 0.0 0.0 0.00 0.00 0.00 55 1014.0
20260506021021 21 43 0.0 0.0 0.00 0.00 0.00 55 1013.9
20260506020519 21 43 0.0 0.0 0.00 0.00 0.00 56 1013.8
20260506020016 21 43 0.0 1.6 0.00 0.00 0.00 55 1013.9
20260506015513 21 43 0.0 0.0 0.00 0.00 0.00 55 1013.7
20260506015010 21 58 0.0 0.0 0.00 0.00 0.00 54 1013.8
20260506014508 21 58 0.0 0.0 0.00 0.00 0.00 54 1013.8
20260506014003 21 58 0.0 0.0 0.00 0.00 0.00 54 1013.7
20260506013502 21 83 0.0 1.6 0.00 0.00 0.00 53 1013.7
20260506012957 21 128 0.0 0.0 0.00 0.00 0.00 52 1014.0
20260506012454 22 128 0.0 0.0 0.00 0.00 0.00 53 1014.0
20260506011951 22 132 0.0 1.6 0.00 0.00 0.00 50 1013.8
20260506011448 22 121 0.0 0.0 0.00 0.00 0.00 51 1013.8
20260506010945 22 121 0.0 1.6 0.00 0.00 0.00 51 1013.7
20260506010444 22 131 0.0 0.0 0.00 0.00 0.00 50 1013.7
20260506005939 22 131 0.0 0.0 0.00 0.00 0.00 50 1013.5
20260506005438 22 131 0.0 0.0 0.00 0.00 0.00 49 1013.7
20260506004932 22 63 0.0 0.0 0.00 0.00 0.00 50 1013.6
20260506004431 22 136 0.0 1.6 0.00 0.00 0.00 48 1013.4
20260506003927 22 102 0.0 1.6 0.00 0.00 0.00 49 1013.5
20260506003423 21 109 0.0 0.0 0.00 0.00 0.00 50 1013.5
20260506002920 21 109 0.0 1.6 0.00 0.00 0.00 49 1013.4
20260506002416 21 109 0.0 1.6 0.00 0.00 0.00 49 1013.6
20260506001911 22 109 0.0 0.0 0.00 0.00 0.00 49 1013.4
20260506001409 22 109 0.0 0.0 0.00 0.00 0.00 49 1013.5
20260506000906 22 110 0.0 1.6 0.00 0.00 0.00 48 1013.4
20260506000404 22 88 0.0 0.0 0.00 0.00 0.00 47 1013.5
20260505235900 22 88 0.0 0.0 0.00 0.00 0.00 50 1013.5
20260505235358 22 106 0.0 0.0 0.00 0.00 0.00 49 1013.4
20260505234855 22 106 0.0 0.0 0.00 0.00 0.00 48 1013.5
20260505234352 23 105 0.0 0.0 0.00 0.00 0.00 48 1013.6
20260505233849 23 105 0.0 0.0 0.00 0.00 0.00 48 1013.4
20260505233347 23 105 0.0 0.0 0.00 0.00 0.00 47 1013.6
20260505232844 24 105 0.0 0.0 0.00 0.00 0.00 46 1013.9
20260505232342 24 105 0.0 0.0 0.00 0.00 0.00 45 1013.8
20260505231838 24 105 0.0 0.0 0.00 0.00 0.00 44 1013.6
20260505231336 24 99 0.0 1.6 0.00 0.00 0.00 44 1013.6
20260505230834 24 99 0.0 3.2 0.00 0.00 0.00 44 1013.6
20260505230331 25 128 0.0 1.6 0.00 0.00 0.00 43 1013.7
20260505225827 25 107 0.0 0.0 0.00 0.00 0.00 43 1013.7
20260505225325 25 116 0.0 1.6 0.00 0.00 0.00 43 1013.6
20260505224820 25 54 0.0 0.0 0.00 0.00 0.00 42 1013.6
20260505224318 25 117 0.0 0.0 0.00 0.00 0.00 44 1013.7
20260505223815 23 106 0.0 0.0 0.00 0.00 0.00 49 1013.7
20260505223312 23 106 0.0 0.0 0.00 0.00 0.00 48 1013.8
20260505222807 23 352 0.0 0.0 0.00 0.00 0.00 47 1013.8
20260505222305 23 352 1.6 1.6 0.00 0.00 0.00 45 1013.6
20260505221801 24 352 0.0 0.0 0.00 0.00 0.00 46 1013.6
20260505221257 23 352 0.0 0.0 0.00 0.00 0.00 46 1013.6
20260505220754 24 352 0.0 0.0 0.00 0.00 0.00 45 1013.7
20260505220252 24 352 0.0 0.0 0.00 0.00 0.00 42 1013.8
20260505215750 24 352 0.0 0.0 0.00 0.00 0.00 43 1013.8
20260505215247 24 83 0.0 0.0 0.00 0.00 0.00 44 1013.8
20260505214745 24 8 0.0 1.6 0.00 0.00 0.00 44 1013.9
20260505214242 24 106 0.0 1.6 0.00 0.00 0.00 40 1014.1
20260505213739 24 139 0.0 0.0 0.00 0.00 0.00 43 1013.9
20260505213236 24 92 1.6 1.6 0.00 0.00 0.00 41 1014.0
20260505212732 24 92 0.0 1.6 0.00 0.00 0.00 41 1013.7
20260505212230 24 182 0.0 1.6 0.00 0.00 0.00 42 1013.5
20260505211727 24 121 0.0 0.0 0.00 0.00 0.00 42 1013.7
20260505211224 25 135 3.2 3.2 0.00 0.00 0.00 40 1013.6
20260505210720 24 115 0.0 1.6 0.00 0.00 0.00 40 1013.6
20260505210217 24 157 0.0 1.6 0.00 0.00 0.00 41 1013.7
20260505205715 25 107 0.0 1.6 0.00 0.00 0.00 41 1013.7
20260505205213 25 64 1.6 4.8 0.00 0.00 0.00 39 1013.8
20260505204708 25 91 0.0 9.7 0.00 0.00 0.00 40 1014.0
20260505204206 25 133 1.6 3.2 0.00 0.00 0.00 39 1013.9
20260505203658 25 97 1.6 3.2 0.00 0.00 0.00 40 1014.2
20260505203155 26 77 0.0 3.2 0.00 0.00 0.00 40 1014.0
20260505202650 26 323 3.2 11.3 0.00 0.00 0.00 39 1014.1
20260505202147 26 94 3.2 3.2 0.00 0.00 0.00 38 1014.4
20260505201643 26 336 0.0 1.6 0.00 0.00 0.00 41 1014.3
20260505201141 26 2 1.6 4.8 0.00 0.00 0.00 41 1014.4
20260505200639 25 123 3.2 3.2 0.00 0.00 0.00 40 1014.5
20260505200136 26 123 0.0 4.8 0.00 0.00 0.00 40 1014.4
20260505195632 25 190 4.8 4.8 0.00 0.00 0.00 38 1014.4
20260505195129 25 128 3.2 3.2 0.00 0.00 0.00 39 1014.5
20260505194626 26 64 1.6 9.7 0.00 0.00 0.00 36 1014.6
20260505194122 25 109 0.0 1.6 0.00 0.00 0.00 43 1014.5
20260505193619 25 123 1.6 6.4 0.00 0.00 0.00 40 1014.5
20260505193116 25 110 1.6 4.8 0.00 0.00 0.00 39 1014.9
20260505192615 25 135 3.2 9.7 0.00 0.00 0.00 39 1014.9
20260505192112 25 82 0.0 3.2 0.00 0.00 0.00 41 1015.1
20260505191610 25 42 3.2 4.8 0.00 0.00 0.00 40 1015.2
20260505191108 25 61 0.0 1.6 0.00 0.00 0.00 45 1015.3